Regional Weather Roundup
Issued by NWS Wakefield, VA

Home | Current Version | Previous Version | Graphics & Text | Print | Product List | Glossary Off
Versions: 1 2 3 4 5 6 7 8 9 10 11 12 13 14 15 16 17 18 19 20 21 22 23 24 25 26 27

000
ASUS41 KAKQ 210315
RWRAKQ

REGIONAL WEATHER ROUNDUP
NATIONAL WEATHER SERVICE WAKEFIELD VA
1100 PM EDT FRI APR 20 2018

Note: "fair" indicates few or no clouds below 12,000 feet with no
significant weather and/or obstructions to visibility. * = Denotes
station may not report precipitation (e.g., rain,snow,etc.),
thunder or fog.

VAZ042-051-052>054-056-210400-
NORTHERN VIRGINIA

CITY           SKY/WX    TMP DP  RH WIND       PRES   REMARKS
WASH NATIONAL  FAIR      53  26  35 NW10      30.37R
DULLES         FAIR      49  26  41 NW7       30.37R
FORT BELVOIR   FAIR      49  28  44 NW3       30.37R
QUANTICO       FAIR      47  34  60 NW7       30.39R
FREDERICKSBRG* FAIR      52  29  40 N5        30.37R
STAFFORD*      FAIR      45  29  53 NW3       30.41R
WARRENTON      FAIR      42  26  52 NW5       30.38R
CULPEPER*      FAIR      42  27  53 CALM      30.39R
MANASSAS*      FAIR      39  31  72 CALM      30.38R
LEESBURG*      FAIR      46  30  53 NW8       30.38R
WINCHESTER     FAIR      41  25  52 CALM      30.40R
FRONT ROYAL*   FAIR      46  25  42 CALM      30.38R
LURAY*         FAIR      45  25  45 N3        30.38S
$$

VAZ048-049-060>072-079>083-210400-
CENTRAL AND SOUTH CENTRAL VIRGINIA

CITY           SKY/WX    TMP DP  RH WIND       PRES   REMARKS
RICHMOND       FAIR      47  31  53 N7        30.36R
CHESTERFIELD*  FAIR      49  28  44 CALM      30.37R
PETERSBURG*    FAIR      37  31  81 CALM      30.37R
HANOVER        FAIR      44  30  57 CALM      30.38R
TAPPAHANNOCK*  FAIR      43  31  63 CALM      30.38R
QUINTON*       FAIR      44  32  62 CALM      30.36R
CHARLOTTSVILLE FAIR      51  21  30 N5        30.37R
GORDONSVILLE*  FAIR      44  30  59 CALM      30.37R
ORANGE*        FAIR      46  28  49 CALM      30.37R
LOUISA*        FAIR      42  26  52 NE5       30.41R
BUMPASS*       FAIR      48  26  40 N3        30.37R
FARMVILLE*     FAIR      45  27  49 N3        30.35R
CREWE*         FAIR      40  33  77 CALM      30.35R
FORT PICKETT*  FAIR      49  24  38 NE5       30.36R
CHASE CITY*    FAIR      43  29  58 CALM      30.34S
CLARKSVILLE*   FAIR      45  32  61 CALM      30.34R
SOUTH HILL*    FAIR      41  32  70 CALM      30.40S
LAWRENCEVILLE* FAIR      45  31  57 CALM      30.34S
EMPORIA*       FAIR      41  32  70 NW3       30.37R
$$

VAZ088>098-210400-
SOUTHEAST VIRGINIA

CITY           SKY/WX    TMP DP  RH WIND       PRES   REMARKS
NORFOLK        FAIR      46  36  68 S5        30.36R
VIRGINIA BEACH FAIR      44  37  76 CALM      30.36R
NORFOLK NAVAL  FAIR      46  35  65 S3        30.38R
WEST POINT*    FAIR      41  35  77 CALM      30.39R
SALUDA*        FAIR      40  37  89 CALM      30.37R
NEWPORT NEWS   FAIR      39  35  86 CALM      30.37R
LANGLEY AFB    FAIR      44  38  78 E3        30.36R
FORT EUSTIS    FAIR      46  36  70 CALM      30.34R
WILLIAMSBURG*  FAIR      45  37  76 CALM      30.38R
HR EXEC AP*    FAIR      38  36  92 CALM      30.38R
FRANKLIN*      FAIR      46  35  64 SE3       30.38R
US460-WAKEFLD  FAIR      42  35  76 CALM      30.37R
$$

VAZ020-022-025-037-045-210400-
WEST CENTRAL AND SOUTHWEST VIRGINIA

CITY           SKY/WX    TMP DP  RH WIND       PRES   REMARKS
STAUNTON*      FAIR      41  25  51 N3        30.39S
WAYNESBORO*    FAIR      40  24  52 CALM      30.38R
HOT SPRINGS VA FAIR      40  12  31 NW10      30.36S
LYNCHBURG      FAIR      45  26  47 N3        30.35R
DANVILLE       FAIR      40  31  70 CALM      30.34R
SOUTH BOSTON*  FAIR      40  29  63 CALM      30.33S
MARTINSVILLE   FAIR      40  27  59 CALM      30.37R
ROANOKE        FAIR      51  19  28 N5        30.38R
BLACKSBURG     FAIR      47  20  35 N5        30.39S
DUBLIN*        FAIR      49  17  27 CALM      30.38R
MARION*        FAIR      41  26  55 CALM      30.39R
HILLSVILLE*    FAIR      45  17  32 NE5       30.35R
RICHLANDS*     FAIR      46  -8  10 NE5       30.38R
WISE*          FAIR      45  19  36 N6        30.38S
ABINGDON*      FAIR      47  19  32 E6        30.35S
$$

MDZ021>025-VAZ099-100-210400-
SOUTHERN MARYLAND AND THE DELMARVA PENINSULA

CITY           SKY/WX    TMP DP  RH WIND       PRES   REMARKS
PATUXENT RIVER FAIR      43  35  73 SW3       30.35S
BAY BRIDGE APT FAIR      50  30  46 NE7       30.37R
LEONARDTOWN    FAIR      45  30  57 CALM      30.38R
DOVER          FAIR      43  29  57 N8        30.36R
GEORGETOWN     FAIR      44  32  62 CALM      30.36R
EASTON         FAIR      45  30  55 NE5       30.40R
CAMBRIDGE      CLEAR     39  36  87 NE5       30.36R
SALISBURY      FAIR      37  32  82 E6        30.36R
TANGIER        FAIR      50  32  50 CALM      30.35S
OCEAN CITY     FAIR      41  38  89 SW3       30.37R
WALLOPS ISLAND FAIR      45  40  82 S5        30.36S
ACCOMACK*      FAIR      39  34  83 CALM      30.35S
$$

NCZ012>017-030>032-210400-
NORTH CENTRAL AND EASTERN NORTH CAROLINA

CITY           SKY/WX    TMP DP  RH WIND       PRES   REMARKS
ROANOKE RAPIDS FAIR      43  34  70 CALM      30.35R
RALEIGH        FAIR      47  34  60 CALM      30.34S
ELIZABETH CITY FAIR      47  39  74 S5        30.38R
AHOSKIE*       FAIR      40  35  81 CALM      30.35S
EDENTON*       FAIR      49  40  72 SE7       30.38R
CURRITUCK*     NOT AVBL
KILL DEVIL HLS FAIR      44  34  68 CALM      30.36R
MANTEO         FAIR      44  35  72 CALM      30.38R
CAPE HATTERAS  FAIR      47  38  71 NE6       30.37R
TARBORO*       NOT AVBL
GOLDSBORO      FAIR      46  35  66 CALM      30.34R
WASHINGTON     FAIR      48  40  73 E5        30.37R
GREENVILLE     FAIR      45  39  81 CALM      30.36R
NEW BERN       FAIR      43  38  82 CALM      30.38R
WILMINGTON     FAIR      46  42  86 CALM      30.35S
$$

VAZ048-210400-
ELSEWHERE

CITY           SKY/WX    TMP DP  RH WIND       PRES   REMARKS
HARRISBURG PA  FAIR      45  24  43 N5        30.39R
BALTIMORE      FAIR      50  28  42 NE9       30.37R
ANNAPOLIS      FAIR      53  33  46 NE10      30.37R
ANDREWS AFB    FAIR      42  30  63 CALM      30.35R
PHILADELPHIA   FAIR      44  23  43 N15       30.39R
HENDERSON NC   FAIR      42  32  66 CALM      30.34S
GREENSBORO     FAIR      52  28  39 NE3       30.33R
ROCKY MOUNT    FAIR      42  36  79 CALM      30.35R
$$

VAZ100-210400-
MARINE

STATION/POSITION TIME  TEMP    WIND        PRES    WAVE   SWELL
                       AIR SEA DIR/SP/G            HT/PER HT/PER
                 (UTC) (F)     (DEG/KT/KT) (MB)    (FT/S) (FT/S)
BRANDYWINE LGT   0242   49      40/ 17/ 19 1028.4R
CAPE MAY NJ      0248   47 49   40/  5/ 10 1027.7R
LEWES DE         0248   50 50   20/ 13/ 17 1027.9R
15NM E FENWICK I 0250   47 46  320/  6/  6 1028.0R   2/ 5   2/ 5
OCEAN-CITY-INLET 0248   47 49  220/  5/  5 1028.5R
WACHAPREAGUE VA  0248   41 54   CALM  /  1 1027.9R
THOMAS POINT MD  0300   51 50   50/ 12/ 14 1029.2R
GOOSES REEF MD   0300   51     310/  4/  6 1028.3
COVE POINT MD    0248   51      CALM  /  1 1028.5R
SOLOMONS ISLAND  0248   48 53  260/  2/  3 1027.7R
BISHOPS HEAD MD  0248   51 54  290/  1/  2 1028.1R
PINEY POINT MD   0248          240/  2/  2   N/A
POTOMAC MD       0300   51 52  210/  2/  4 1029.3    0
CAMBRIDGE MD     0248   45 54              1028.7R
LEWISETTA VA     0248   48 53  260/  3/  4 1028.2R
RAPPAHANNOCK LGT 0248           90/  3/  3 1028.6R
YORK RVR RNG VA  0248   52     130/  3/  4 1028.7R
YORKTOWN VA      0248   52 56  100/  3/  4 1027.9R
DOMINION TERM VA 0248   51     170/  8/ 10 1028.3R
KIPTOPEKE VA     0248      54  120/  3/  3   N/A
CAPE HENRY VA    0248   47     190/  8/  8   N/A
WILLOUBY STN VA  0248   50     170/  7/  8 1028.2R
S CRANEY ISL VA  0248   51     170/  6/  9 1028.0R
CAPE HENRY BUOY  0230      50                N/A     2/ 6
64NM E OF VA BCH 0250   47 48  130/  2/  2 1028.4R   4/ 7   3/ 7
DUCK PIER NC     0248   48 52  140/  6/  6 1027.9R
44100 DUCK FRF   0245      50                N/A     3/ 7
44056 DUCK FRF   0230      51                N/A     3/ 6   2/14
OREGON INLET NC  0236   47 56   80/  5/  7 1028.3R
HATTERAS NC      0248   49 61   90/  4/  6 1028.3R
DIAMOND SHLS NC  0300   54 70   30/ 10/ 16 1028.4
CAPE LOOKOUT NC  0300           50/  6/  7 1028.2R
$$




USA.gov is the U.S. government's official web portal to all federal, state and local government web resources and services.